Overview Statistics Trail Chart Weather Telemetry Raw packets
 

This is the latest recevied weather packets stored in our database for station/object KG5MMT-12. If no packets are shown the sender has not sent any weather packets the latest 10 day(s).

<< 30 31 32 33 34 35 36 >>
Time Temp. Humidity Pressure Rain* Wind** Luminosity Snow
1788485042 21.67° C 50% 0 hPa 0 mm - - -
1788484742 21.67° C 50% 0 hPa 0 mm - - -
1788484442 22.22° C 47% 0 hPa 0 mm - - -
1788484142 22.78° C 46% 0 hPa 0 mm - - -
1788483842 22.78° C 45% 0 hPa 0 mm - - -
1788483542 23.33° C 42% 0 hPa 0 mm - - -
1788483242 23.33° C 40% 0 hPa 0 mm - - -
1788482942 23.89° C 39% 0 hPa 0 mm - - -
1788482642 24.44° C 39% 0 hPa 0 mm - - -
1788482342 24.44° C 36% 0 hPa 0 mm - - -
1788482042 25° C 37% 0 hPa 0 mm - - -
1788481742 25° C 33% 0 hPa 0 mm - - -
1788481442 25.56° C 35% 0 hPa 0 mm - - -
1788481142 25.56° C 32% 0 hPa 0 mm - - -
1788480842 25.56° C 33% 0 hPa 0 mm - - -
1788480542 26.11° C 31% 0 hPa 0 mm - - -
1788480242 26.11° C 30% 0 hPa 0 mm - - -
1788479942 26.67° C 29% 0 hPa 0 mm - - -
1788479642 26.67° C 28% 0 hPa 0 mm - - -
1788479342 27.22° C 28% 0 hPa 0 mm - - -
1788479042 27.22° C 26% 0 hPa 0 mm - - -
1788478742 27.22° C 27% 0 hPa 0 mm - - -
1788478442 27.78° C 26% 0 hPa 0 mm - - -
1788478142 27.22° C 27% 0 hPa 0 mm - - -
1788477842 27.78° C 26% 0 hPa 0 mm - - -

* Rain latest hour (hover to see other rain measurements)
** Current wind speed in m/s (hover to see current wind gust speed)